Wind_Speed
19 11 3 14 27 38 46 52 55 57 59 60 62 70 82 91 96 105 113 114 114 112 108 104 99 94 88 81 74 70 73 76 76 76 74 71 68 64
13 9 4 7 18 29 38 45 50 53 55 59 60 65 75 84 90 97 108 113 113 112 110 106 102 98 92 85 76 68 68 73 75 74 72 71 69 65
9 7 5 7 13 22 30 37 44 49 52 55 58 60 69 78 85 92 102 111 113 113 111 108 105 101 96 90 85 73 65 69 72 72 70 69 67 64
13 10 9 10 13 18 25 31 37 43 47 50 55 57 63 72 80 88 97 107 112 113 112 110 108 104 100 95 91 82 69 65 67 70 68 66 63 61
16 14 13 12 14 17 21 26 32 37 42 45 49 53 58 66 74 83 92 103 110 112 112 112 110 107 104 99 95 89 75 64 61 61 64 64 60 57
18 16 15 14 15 17 20 23 28 32 37 41 45 48 53 61 70 80 88 99 107 111 112 112 111 108 105 103 96 90 80 72 63 58 56 59 59 56
18 15 13 13 14 16 18 21 24 29 33 37 40 44 49 57 66 76 84 94 104 110 110 109 108 107 105 102 98 90 82 75 66 58 56 56 54 56
17 13 10 9 11 13 16 18 21 25 29 33 36 39 45 53 63 72 79 89 99 107 108 106 105 103 102 100 98 94 86 77 73 64 56 55 53 51
18 13 8 5 5 8 12 15 18 21 25 30 33 36 42 50 60 68 75 84 94 102 104 103 101 97 97 96 96 94 89 82 75 71 64 58 56 52
19 15 10 5 1 3 7 11 15 19 22 26 29 32 39 48 57 65 71 78 87 95 99 99 97 94 92 92 92 90 86 83 78 73 69 63 57 53
21 17 13 10 6 4 3 6 10 15 19 23 26 30 37 46 55 62 68 74 80 89 94 95 93 90 88 87 88 87 84 80 76 71 67 64 61 55
23 20 16 14 11 8 6 4 6 10 15 20 24 29 37 46 54 60 64 69 75 82 90 92 90 88 85 84 83 84 82 79 74 70 66 62 59 57
24 22 19 17 15 13 10 7 5 6 11 16 22 28 36 45 53 58 62 66 71 77 85 89 87 86 83 81 79 79 81 79 75 70 66 62 59 57
24 21 19 18 17 15 13 11 8 6 7 13 20 28 36 45 52 56 59 62 66 71 79 86 87 85 82 80 77 75 76 78 76 72 67 63 61 59
24 21 19 18 17 16 14 13 11 9 7 10 18 27 36 44 50 53 55 57 60 66 72 80 85 85 82 79 77 76 75 75 76 73 69 66 63 60
24 20 18 17 16 16 15 14 12 11 9 10 16 25 35 42 47 50 51 51 53 58 65 73 80 83 81 78 75 74 74 74 73 74 72 68 65 62
27 20 17 15 15 15 15 14 13 12 12 13 17 24 33 40 44 47 47 47 47 50 56 64 73 79 80 77 74 72 71 72 73 72 71 69 67 64
35 23 17 14 12 12 12 13 13 13 14 15 18 24 31 37 41 43 44 43 42 44 48 54 62 70 75 75 74 70 69 70 70 71 71 70 68 65
39 31 20 14 11 9 10 10 11 13 14 15 18 22 28 33 38 40 40 40 39 40 42 47 53 60 67 72 73 70 67 67 67 67 68 68 68 66
37 35 28 18 11 8 7 7 9 11 13 15 17 20 24 29 33 37 38 38 38 39 40 43 48 53 58 65 70 71 69 68 68 67 67 67 67 66
34 34 31 26 17 9 5 4 6 9 11 13 15 17 20 24 28 33 36 37 37 37 39 42 45 50 55 59 64 69 70 68 67 67 66 66 65 65
32 31 30 28 24 16 8 2 4 7 9 11 13 16 18 21 25 28 32 35 37 38 39 42 45 49 55 58 60 63 66 67 66 67 67 64 62 63
30 29 28 28 26 21 14 7 1 6 9 11 13 14 16 19 22 25 28 32 36 39 41 44 47 50 55 60 61 62 63 65 66 67 65 63 62 60
Wind_Direction
21 17 306 225 219 218 219 220 220 221 226 230 229 222 219 215 212 210 206 204 204 205 205 206 206 207 207 209 211 215 218 219 220 221 222 223 225 226
12 10 339 234 222 219 219 219 219 220 223 228 230 224 218 215 212 210 207 204 203 204 204 205 206 206 206 206 208 212 214 216 217 219 221 223 224 226
331 325 298 250 229 222 219 219 219 219 221 226 229 225 218 214 211 209 207 203 202 203 204 204 205 206 205 204 207 212 212 211 213 216 218 221 222 224
302 291 274 252 235 226 222 220 219 219 219 223 228 225 218 213 209 207 207 204 201 201 203 204 205 206 205 205 207 211 211 208 208 212 215 216 218 221
296 284 271 256 240 230 225 221 220 218 218 221 225 224 218 211 207 205 205 204 201 201 202 204 205 207 206 206 209 211 213 210 207 209 210 211 214 219
303 290 275 260 245 235 228 222 220 218 217 219 222 222 216 209 205 203 204 204 201 200 202 204 206 208 207 208 209 211 213 212 212 210 207 207 211 216
321 304 283 264 249 237 228 221 218 216 216 217 219 219 214 207 203 202 202 203 202 201 201 203 207 209 209 209 210 210 212 214 216 217 215 211 212 215
341 327 304 274 250 235 224 218 215 214 213 213 215 215 210 204 200 199 200 202 202 201 201 203 206 210 211 211 211 211 212 215 217 218 218 218 216 214
359 354 342 305 256 228 217 213 210 208 208 209 211 211 206 201 198 197 198 201 202 201 201 203 206 209 212 212 213 213 214 215 217 219 221 223 223 222
15 16 19 18 6 199 203 205 205 203 203 204 207 206 201 197 195 195 196 199 201 201 201 202 205 208 211 213 213 213 214 215 217 219 221 222 225 226
25 30 37 44 55 81 146 182 192 194 195 198 201 199 195 192 191 192 194 197 199 200 201 201 203 206 210 212 213 213 213 214 215 217 218 219 221 223
32 38 44 50 56 63 79 122 165 182 189 193 194 192 189 188 187 189 192 194 197 199 200 200 201 203 207 210 212 213 212 212 213 214 215 216 216 218
36 42 48 53 56 60 64 76 108 158 181 187 187 186 184 183 184 186 189 192 196 198 200 200 200 201 203 206 209 212 212 211 212 213 214 215 215 215
37 44 49 55 57 59 62 65 74 100 154 176 181 180 179 179 181 184 187 190 194 197 200 201 200 200 201 203 205 208 210 211 211 212 213 213 213 214
36 43 50 56 59 60 63 68 73 81 110 154 171 174 174 175 178 181 184 187 192 196 200 203 203 202 202 202 204 207 208 210 210 211 212 213 213 214
32 40 48 55 61 65 69 74 79 87 103 133 157 166 169 172 175 178 181 185 189 195 199 203 204 203 202 202 203 205 207 209 210 211 212 214 215 215
28 33 42 51 60 67 73 81 88 96 107 126 147 159 164 168 172 176 180 183 187 192 199 203 206 206 204 202 201 203 206 208 209 211 212 214 216 217
26 28 33 43 56 67 76 85 94 102 112 125 142 156 163 167 170 174 179 182 186 191 196 202 206 208 207 206 204 203 205 207 209 211 213 216 217 218
25 27 28 35 47 63 78 89 99 109 118 129 142 155 164 168 172 176 180 184 187 191 195 200 205 208 210 210 207 204 203 204 206 208 211 214 216 218
24 26 28 30 36 52 76 97 110 119 127 135 145 157 167 173 178 182 185 187 189 192 195 198 202 205 208 211 212 209 205 202 201 203 208 211 214 215
22 25 27 30 31 36 57 106 131 138 142 147 153 161 170 178 185 190 193 194 195 196 196 197 200 202 204 207 210 211 209 205 201 200 203 206 208 210
21 23 26 28 29 30 32 66 169 170 168 166 168 172 178 184 190 195 199 201 202 202 200 198 198 200 201 203 206 209 210 208 206 203 200 202 205 207
19 22 24 25 26 25 24 22 245 208 198 191 187 186 188 192 197 202 205 207 208 207 206 203 200 199 199 198 201 204 206 208 208 207 205 205 204 205
Height
5272 5269 5268 5270 5274 5280 5288 5298 5309 5319 5328 5336 5344 5355 5368 5387 5408 5431 5456 5482 5508 5533 5556 5578 5598 5616 5634 5649 5662 5671 5680 5693 5704 5716 5727 5738 5748 5756
5277 5273 5271 5271 5273 5277 5283 5291 5299 5309 5318 5325 5333 5343 5357 5375 5395 5417 5442 5467 5493 5518 5541 5563 5583 5602 5619 5636 5650 5658 5666 5678 5691 5704 5716 5727 5737 5746
5278 5275 5273 5272 5273 5275 5279 5285 5292 5300 5309 5316 5323 5333 5347 5364 5384 5405 5429 5453 5478 5503 5526 5548 5568 5586 5604 5621 5636 5648 5656 5667 5680 5693 5705 5716 5727 5736
5277 5274 5272 5271 5271 5273 5276 5281 5287 5294 5302 5309 5316 5326 5339 5355 5374 5395 5417 5440 5464 5488 5511 5532 5552 5571 5589 5606 5621 5635 5646 5657 5669 5682 5694 5706 5717 5726
5274 5271 5269 5269 5269 5271 5273 5277 5282 5288 5295 5302 5309 5318 5331 5347 5365 5385 5405 5428 5451 5474 5497 5518 5538 5556 5575 5592 5607 5623 5636 5648 5660 5672 5684 5695 5707 5717
5270 5267 5266 5265 5266 5268 5270 5273 5278 5283 5290 5296 5303 5312 5324 5339 5356 5375 5395 5416 5439 5461 5484 5505 5525 5542 5562 5580 5597 5612 5627 5639 5651 5663 5674 5686 5698 5708
5266 5263 5262 5262 5262 5264 5266 5270 5274 5279 5285 5292 5299 5308 5319 5332 5349 5367 5387 5408 5430 5451 5473 5495 5514 5532 5549 5567 5584 5600 5615 5629 5642 5654 5666 5677 5689 5699
5264 5261 5259 5259 5259 5261 5263 5266 5270 5275 5281 5288 5295 5303 5314 5327 5343 5361 5380 5399 5421 5442 5464 5484 5502 5520 5537 5556 5574 5590 5606 5620 5634 5647 5658 5669 5680 5691
5265 5261 5259 5259 5259 5260 5262 5265 5269 5273 5278 5285 5292 5300 5311 5324 5339 5356 5373 5392 5414 5436 5457 5476 5494 5511 5527 5545 5562 5580 5596 5611 5625 5638 5650 5662 5673 5684
5268 5264 5262 5261 5260 5261 5263 5265 5268 5272 5277 5283 5290 5299 5309 5321 5336 5352 5369 5388 5408 5429 5450 5469 5486 5503 5518 5535 5552 5570 5586 5602 5617 5630 5643 5655 5666 5676
5274 5270 5267 5265 5265 5265 5266 5267 5270 5273 5277 5283 5289 5297 5307 5319 5333 5349 5366 5383 5402 5422 5440 5459 5477 5494 5509 5525 5542 5559 5577 5593 5608 5622 5635 5647 5659 5669
5281 5277 5274 5272 5271 5270 5270 5271 5273 5275 5279 5283 5289 5297 5306 5318 5332 5348 5363 5380 5397 5415 5431 5450 5468 5484 5501 5515 5532 5550 5568 5584 5599 5613 5627 5639 5650 5661
5290 5285 5282 5280 5278 5277 5276 5276 5277 5278 5281 5285 5290 5298 5307 5319 5332 5347 5362 5377 5393 5410 5427 5444 5461 5478 5494 5509 5525 5541 5559 5575 5590 5604 5617 5630 5642 5654
5298 5294 5291 5288 5286 5284 5283 5282 5282 5283 5285 5288 5293 5299 5308 5319 5332 5346 5361 5375 5390 5407 5422 5438 5456 5472 5489 5503 5518 5533 5549 5566 5581 5596 5609 5621 5633 5644
5307 5303 5299 5297 5294 5292 5291 5290 5289 5289 5290 5292 5296 5302 5311 5321 5334 5347 5361 5375 5389 5404 5418 5433 5449 5466 5481 5496 5510 5525 5540 5556 5572 5586 5600 5612 5625 5635
5315 5311 5308 5305 5302 5300 5299 5298 5297 5297 5297 5298 5302 5307 5315 5325 5337 5350 5363 5376 5389 5402 5415 5428 5443 5459 5474 5489 5503 5518 5532 5548 5563 5578 5591 5604 5616 5628
5322 5318 5315 5312 5310 5308 5307 5306 5305 5305 5305 5306 5309 5314 5322 5331 5341 5353 5365 5377 5389 5400 5412 5424 5438 5453 5467 5482 5496 5510 5525 5540 5556 5570 5583 5596 5608 5620
5329 5324 5321 5318 5316 5315 5314 5313 5312 5312 5313 5314 5317 5322 5329 5337 5346 5357 5368 5379 5389 5399 5410 5421 5433 5447 5461 5475 5489 5504 5518 5533 5548 5562 5575 5588 5600 5612
5338 5331 5326 5324 5322 5320 5320 5319 5319 5319 5321 5322 5325 5330 5335 5342 5351 5360 5370 5379 5389 5398 5408 5418 5429 5442 5455 5470 5483 5498 5513 5526 5539 5553 5566 5579 5592 5604
5346 5339 5333 5329 5327 5325 5325 5325 5325 5326 5327 5329 5332 5336 5341 5347 5354 5362 5370 5379 5388 5396 5405 5415 5425 5437 5450 5464 5478 5492 5505 5519 5532 5544 5557 5569 5581 5593
5353 5346 5340 5335 5331 5329 5329 5329 5329 5331 5332 5334 5337 5340 5344 5350 5356 5362 5370 5378 5386 5394 5402 5411 5421 5431 5443 5456 5470 5483 5497 5510 5523 5537 5549 5560 5571 5581
5358 5352 5347 5341 5337 5333 5332 5331 5332 5333 5335 5337 5340 5343 5346 5351 5356 5361 5368 5375 5382 5390 5398 5406 5415 5425 5436 5449 5462 5475 5489 5502 5514 5526 5538 5551 5562 5574
5363 5357 5352 5347 5342 5338 5335 5333 5333 5334 5336 5338 5340 5343 5346 5350 5354 5359 5364 5370 5377 5384 5392 5400 5409 5419 5429 5441 5454 5467 5480 5493 5506 5517 5528 5540 5553 5564